TimeCST,TemperatureF,Dew PointF,Humidity,Sea Level PressureIn,VisibilityMPH,Wind Direction,Wind SpeedMPH,Gust SpeedMPH,PrecipitationIn,Events,Conditions,WindDirDegrees,DateUTC
12:55 AM,44.1,28.8,55,30.32,10.0,South,6.9,-,N/A,,Clear,170,2012-11-18 06:55:00
1:55 AM,39.9,29.8,67,30.32,10.0,South,6.9,-,N/A,,Clear,170,2012-11-18 07:55:00
2:55 AM,41.4,29.8,64,30.31,10.0,SSE,4.6,-,N/A,,Clear,160,2012-11-18 08:55:00
3:55 AM,41.4,30.2,65,30.31,10.0,SSE,6.9,-,N/A,,Clear,160,2012-11-18 09:55:00
4:55 AM,40.8,29.5,64,30.31,10.0,SSE,6.9,-,N/A,,Clear,160,2012-11-18 10:55:00
5:55 AM,39.6,28.6,65,30.31,10.0,SSE,5.8,-,N/A,,Clear,150,2012-11-18 11:55:00
6:55 AM,39.0,27.7,64,30.31,10.0,SSE,6.9,-,N/A,,Clear,160,2012-11-18 12:55:00
7:55 AM,40.1,27.7,61,30.31,10.0,SSE,6.9,-,N/A,,Clear,160,2012-11-18 13:55:00
8:55 AM,43.9,28.8,55,30.31,10.0,South,8.1,-,N/A,,Clear,170,2012-11-18 14:55:00
9:55 AM,49.5,31.3,50,30.32,10.0,South,6.9,-,N/A,,Clear,170,2012-11-18 15:55:00
10:55 AM,54.9,32.0,42,30.32,10.0,South,12.7,-,N/A,,Clear,190,2012-11-18 16:55:00
11:55 AM,60.4,33.6,37,30.28,10.0,SSW,15.0,-,N/A,,Clear,210,2012-11-18 17:55:00
12:55 PM,62.6,34.9,36,30.24,10.0,South,11.5,-,N/A,,Clear,190,2012-11-18 18:55:00
1:55 PM,64.4,33.1,31,30.22,10.0,SSW,12.7,-,N/A,,Clear,200,2012-11-18 19:55:00
2:55 PM,62.8,32.4,32,30.20,10.0,SSW,10.4,-,N/A,,Partly Cloudy,200,2012-11-18 20:55:00
3:55 PM,63.1,32.0,31,30.19,10.0,SSE,8.1,-,N/A,,Clear,150,2012-11-18 21:55:00
4:55 PM,58.8,31.1,35,30.20,10.0,SSE,5.8,-,N/A,,Partly Cloudy,160,2012-11-18 22:55:00
5:55 PM,57.0,30.4,36,30.22,10.0,SSE,4.6,-,N/A,,Mostly Cloudy,150,2012-11-18 23:55:00
6:55 PM,55.2,30.9,40,30.22,10.0,SSE,8.1,-,N/A,,Partly Cloudy,150,2012-11-19 00:55:00
7:55 PM,54.9,29.3,38,30.21,10.0,SSE,9.2,-,N/A,,Mostly Cloudy,150,2012-11-19 01:55:00
8:55 PM,54.5,27.5,35,30.22,10.0,SSE,11.5,-,N/A,,Mostly Cloudy,160,2012-11-19 02:55:00
9:55 PM,54.1,28.6,37,30.21,10.0,SSE,9.2,-,N/A,,Scattered Clouds,160,2012-11-19 03:55:00
10:05 PM,53.6,30.2,41,30.22,10.0,SSE,10.4,-,N/A,Rain,Light Rain,160,2012-11-19 04:05:00
10:28 PM,51.8,33.8,50,30.19,10.0,SSE,11.5,-,N/A,,Mostly Cloudy,150,2012-11-19 04:28:00
10:55 PM,53.1,32.7,46,30.19,10.0,SSE,10.4,-,0.00,,Mostly Cloudy,160,2012-11-19 04:55:00
11:55 PM,53.4,33.8,47,30.20,10.0,South,10.4,-,N/A,,Overcast,170,2012-11-19 05:55:00